This demonstration page uses our WeatherBlox Daily Observations layout. Learn more.

Left ArrowRight Arrow

38.20091, -84.87328

Hourly Observations for May 12, 2020

Temp ( °F °C ) Dew Point ( °F °C ) Humidity (%) Winds ( mph kmh ) Pressure ( in mb ) Visibility ( mi km ) Precip ( " mm )
12:53 am 00:53 Partly Cloudy 43 6.1 37 2.8 80 80 Calm 30.22 1023 10 16 0.00 0.00
1:53 am 01:53 Clear 38 3.3 34 1.1 86 86 Calm 30.23 1024 10 16 0.00 0.00
2:53 am 02:53 Clear 38 3.3 33 0.6 83 83 Calm 30.23 1024 10 16 0.00 0.00
3:53 am 03:53 Clear 36 2.2 33 0.6 89 89 Calm 30.23 1024 10 16 0.00 0.00
4:53 am 04:53 Clear 36 2.2 34 1.1 93 93 Calm 30.24 1024 10 16 0.00 0.00
5:53 am 05:53 Clear 37 2.8 33 0.6 86 86 Calm 30.25 1025 10 16 0.00 0.00
6:53 am 06:53 Sunny 36 2.2 34 1.1 93 93 Calm 30.27 1025 10 16 0.00 0.00
7:53 am 07:53 Sunny 40 4.4 37 2.8 89 89 Calm 30.29 1026 10 16 0.00 0.00
8:53 am 08:53 Sunny 47 8.3 39 3.9 74 74 Calm 30.29 1026 10 16 0.00 0.00
9:53 am 09:53 Sunny 53 11.7 38 3.3 57 57 Calm 30.29 1026 10 16 0.00 0.00
10:53 am 10:53 Mostly Cloudy 55 12.8 34 1.1 45 45 SW 6 9 30.28 1026 10 16 0.00 0.00
11:53 am 11:53 Mostly Cloudy 56 13.3 34 1.1 44 44 VRB 3 6 30.27 1025 10 16 0.00 0.00
12:53 pm 12:53 Mostly Sunny 58 14.4 35 1.7 42 42 undefined N/A 30.27 1025 10 16 0.00 0.00
1:53 pm 13:53 Cloudy 58 14.4 34 1.1 41 41 Calm 30.25 1024 10 16 0.00 0.00
2:53 pm 14:53 Mostly Cloudy 59 15 34 1.1 39 39 W 9 15 30.25 1024 10 16 0.00 0.00
3:53 pm 15:53 Cloudy 60 15.6 35 1.7 39 39 Calm 30.24 1024 10 16 0.00 0.00
4:53 pm 16:53 Mostly Cloudy 60 15.6 35 1.7 39 39 Calm 30.22 1024 10 16 0.00 0.00
5:53 pm 17:53 Mostly Cloudy 61 16.1 35 1.7 38 38 W 5 7 30.22 1023 10 16 0.00 0.00
6:53 pm 18:53 Mostly Cloudy 60 15.6 34 1.1 38 38 NW 3 6 30.22 1023 10 16 0.00 0.00
7:53 pm 19:53 Cloudy 59 15 35 1.7 41 41 NW 5 7 30.21 1023 10 16 0.00 0.00
8:53 pm 20:53 Mostly Clear 56 13.3 39 3.9 53 53 Calm 30.21 1023 10 16 0.00 0.00
9:53 pm 21:53 Partly Cloudy 53 11.7 40 4.4 61 61 Calm 30.21 1023 10 16 0.00 0.00
10:53 pm 22:53 Mostly Clear 50 10 41 5 71 71 Calm 30.22 1023 10 16 0.00 0.00
11:53 pm 23:53 Cloudy 51 10.6 41 5 69 69 Calm 30.23 1024 10 16 0.00 0.00

Powered by AerisWeather